Location: Korczew
(51.3586°N, 19.4491°E)
Time: 22:09:05
(UTC+00:00)

Cosmos 405 Rocket - Pass Details

Date: 19 May 2025
Orbit: 413 x 447 km, 81.2° (Epoch: 16 June)

Event Time Altitude Azimuth Distance (km) Brightness Sun altitude
Rises 21:36:49 0° 343° (NNW) 2,463 7.9 -17.4°
Reaches altitude 10° 21:38:56 10° 339° (NNW) 1,580 6.5 -17.5°
Maximum altitude 21:42:18 53° 262° (W) 552 2.8 -17.6°
Enters shadow 21:43:07 41° 214° (SW) 656 2.9 -17.6°
